[[{"header":{"parameterUnit":"m.s-1","parameterCategory":2,"la1":30.2991,"la2":30.254,"lo1":-89.0895,"lo2":-89.0444,"dy":0.0017,"dx":0.0017,"nx":28,"ny":28,"refTime":"2023-07-23T03:00:00:Z","depth":"0","parameterNumber":2,"parameterNumberName":"U-component_of_CURRENTS"},"data":[0,0,0,0,0,0,0,0,0,0,0,0,0,0,0,0,0,0,0,0,0,0,0,0,0,0,0,0,0,0,0,0,0,0,0,0,0,0,0,0,0,0,0,0,0,0,0,0,0,0,0,0,0,0,0,0,0,0,0.3632,0.3633,0,0.3704,0.3705,0.3706,0.3713,0.3712,0.3711,0.3711,0.3853,0.3857,0.3861,0,0,0,0,0,0,0,0,0,0,0,0,0,0.3527,0.3529,0.3632,0.3633,0.3634,0.3704,0.3705,0.3706,0.3713,0.3712,0.3711,0.371,0.3851,0.3856,0.3862,0,0,0,0,0,0,0,0,0,0,0,0,0,0.3582,0.3529,0.3632,0.3646,0.3648,0.3704,0.3705,0.3706,0.3713,0.3712,0.3711,0.371,0.3849,0.3856,0.3862,0.3924,0,0,0.3883,0.3885,0,0,0,0,0,0,0,0,0.3579,0.3586,0.3643,0.3645,0.3648,0.3699,0.372,0.3783,0.3713,0.3687,0.3711,0.3709,0.3809,0.3819,0.3833,0.393,0.3937,0.3883,0.3887,0.389,0.3892,0,0,0,0,0,0,0,0.3575,0.3583,0.366,0.3644,0.3647,0.3659,0.3665,0.3732,0.3754,0.369,0.369,0.37,0.3811,0.3826,0.3836,0.3939,0.3883,0.3889,0.3893,0.3896,0.4154,0.4157,0,0,0,0,0,0,0.3568,0.358,0.3657,0.3662,0.3611,0.3661,0.3669,0.3683,0.3752,0.3761,0.3701,0.37,0.3815,0.3828,0.3841,0.3939,0.389,0.3896,0.39,0.4151,0.4155,0.4158,0,0,0,0,0,0,0.3566,0.3575,0.3655,0.3623,0.3634,0.3664,0.3681,0.3685,0.3699,0.376,0.377,0.371,0.3815,0.3832,0.3914,0.3944,0.3899,0.3905,0.4148,0.4153,0.4157,0.4122,0,0,0,0,0,0,0.3563,0.3574,0.3593,0.3623,0.3635,0.3705,0.3682,0.3687,0.3707,0.3707,0.3771,0.3783,0.3815,0.3904,0.3921,0.3952,0.391,0.4144,0.415,0.4155,0.4119,0.4124,0.4129,0,0,0,0,0,0.3559,0.3596,0.3593,0.3603,0.3657,0.3706,0.3715,0.3732,0.3708,0.3735,0.3772,0.3781,0.3951,0.3912,0.3931,0.3964,0.4142,0.4148,0.4155,0.4117,0.4123,0.4129,0,0,0,0,0,0,0.3578,0.3601,0.3599,0.3645,0.3677,0.3708,0.374,0.3733,0.378,0.3779,0.3814,0.3832,0.3929,0.3958,0.3913,0.4062,0.405,0.4061,0.4015,0.4022,0.4027,0.3989,0.3916,0,0,0,0,0,0.3586,0.3607,0.3637,0.3676,0.3693,0.371,0.3732,0.3738,0.3777,0.3794,0.3834,0.3893,0.3973,0.4001,0.4085,0.415,0.4173,0.419,0.4195,0.4198,0.4186,0.425,0.4257,0.418,0.4179,0.4179,0,0,0.3601,0.362,0.3632,0.3679,0.3703,0.373,0.3722,0.3761,0.3778,0.3808,0.3858,0.3926,0.4004,0.409,0.4133,0.4108,0.4238,0.4206,0.4208,0.4193,0.4257,0.4264,0.427,0.4184,0.4183,0.4182,0,0,0.3632,0.3663,0.368,0.3707,0.3743,0.376,0.3767,0.38,0.3816,0.3874,0.3912,0.398,0.4086,0.4136,0.4177,0.426,0.428,0.4302,0.4267,0.433,0.4335,0.434,0.4381,0.439,0.4278,0.4278,0.4278,0,0.3647,0.3661,0.3699,0.3722,0.3729,0.3766,0.3773,0.3818,0.3869,0.3874,0.3894,0.4033,0.4104,0.4181,0.4219,0.4265,0.4299,0.4227,0.433,0.4335,0.4341,0.4382,0.4392,0.4277,0.4277,0.4277,0.4277,0,0.3676,0.3686,0.3708,0.373,0.3761,0.378,0.3827,0.3859,0.3873,0.3894,0.3977,0.4072,0.4136,0.4189,0.4231,0.4311,0.4324,0.4342,0.4296,0.4345,0.4387,0.4398,0.4276,0.4276,0.4276,0.4277,0,0,0.3666,0.3709,0.3705,0.3693,0.3748,0.3765,0.3815,0.3842,0.3843,0.3924,0.3926,0.408,0.4108,0.4159,0.4226,0.4277,0.4362,0.4319,0.4323,0.4325,0.449,0.4471,0.4481,0.4395,0.4397,0.4398,0.4502,0,0.365,0.366,0.3692,0.3691,0.3687,0.3731,0.3766,0.3807,0.3847,0.3879,0.3966,0.4035,0.4107,0.4141,0.4209,0.4336,0.439,0.4331,0.4472,0.4476,0.4425,0.4493,0.448,0.4569,0.4513,0.4515,0.4516,0,0.3621,0.3629,0.3615,0.3619,0.3623,0.3642,0.3655,0.3694,0.3768,0.3805,0.387,0.3949,0.406,0.4113,0.4308,0.4268,0.438,0.4463,0.447,0.4465,0.4477,0.4517,0.4591,0.4367,0.4533,0.4531,0.453,0,0.3526,0.3549,0.352,0.3526,0.3569,0.3565,0.3592,0.3653,0.3671,0.3757,0.3776,0.391,0.398,0.4138,0.4327,0.4329,0.4524,0.4544,0.4623,0.4622,0.4644,0.4641,0.4486,0.4676,0.4676,0.4676,0.4675,0,0.3453,0.3425,0.3473,0.3454,0.3426,0.3488,0.3471,0.3521,0.3584,0.3601,0.3731,0.3778,0.3995,0.413,0.4304,0.4493,0.4512,0.4627,0.4655,0.4634,0.463,0.4462,0.4365,0.4679,0.4679,0.4678,0.4677,0,0.3335,0.3367,0.3329,0.3362,0.3373,0.3349,0.3392,0.3393,0.3473,0.3499,0.3531,0.369,0.3884,0.4085,0.4339,0.4451,0.4527,0.4701,0.4648,0.4668,0.4515,0.442,0.4223,0.4169,0.48,0.48,0.48,0,0.3273,0.3243,0.3243,0.3224,0.3234,0.323,0.3236,0.3323,0.3337,0.3449,0.3458,0.3636,0.3768,0.4105,0.4373,0.4647,0.4514,0.4749,0.4753,0.4495,0.4412,0.4211,0.4166,0.478,0.478,0.478,0.478,0,0.3151,0.3146,0.3122,0.3093,0.3084,0.3077,0.31,0.3097,0.3202,0.3247,0.3331,0.3441,0.3789,0.4036,0.4381,0.46,0.451,0.4755,0.452,0.4401,0.4145,0.411,0.469,0.478,0.478,0.478,0.478,0.478,0.3053,0.3004,0.2982,0.2949,0.2939,0.2925,0.2895,0.2947,0.297,0.3034,0.3198,0.3355,0.3719,0.4219,0.4399,0.458,0.4497,0.4527,0.4444,0.4268,0.4159,0.4712,0.4804,0.4804,0.4804,0.4804,0.4804,0,0.293,0.2901,0.2853,0.2809,0.2762,0.2805,0.2804,0.2779,0.2782,0.2912,0.3016,0.3361,0.3661,0.4002,0.4318,0.4245,0.4214,0.4123,0.3834,0.3827,0.437,0.4309,0.4256,0.4256,0.4256,0.4256,0.4256,0.4257,0.2867,0.2791,0.2772,0.2665,0.2631,0.2562,0.2542,0.2534,0.2604,0.2698,0.2851,0.3053,0.3353,0.3615,0.3732,0.3792,0.3533,0.3409,0.3306,0.3656,0.3685,0.3713,0.3626,0.3431,0.343,0.2738,0.2732,0.2727]},{"header":{"parameterUnit":"m.s-1","parameterCategory":2,"la1":30.2991,"la2":30.254,"lo1":-89.0895,"lo2":-89.0444,"dy":0.0017,"dx":0.0017,"nx":28,"ny":28,"refTime":"2023-07-23T03:00:00:Z","depth":"0","parameterNumber":3,"parameterNumberName":"V-component_of_CURRENTS"},"data":[0,0,0,0,0,0,0,0,0,0,0,0,0,0,0,0,0,0,0,0,0,0,0,0,0,0,0,0,0,0,0,0,0,0,0,0,0,0,0,0,0,0,0,0,0,0,0,0,0,0,0,0,0,0,0,0,0,0,-0.029,-0.029,0,-0.0254,-0.0253,-0.0253,-0.0268,-0.0269,-0.027,-0.0271,-0.0265,-0.0264,-0.0263,0,0,0,0,0,0,0,0,0,0,0,0,0,-0.0372,-0.037,-0.029,-0.029,-0.029,-0.0254,-0.0253,-0.0253,-0.0268,-0.0269,-0.0271,-0.0272,-0.0266,-0.0264,-0.0263,0,0,0,0,0,0,0,0,0,0,0,0,0,-0.0334,-0.0369,-0.029,-0.0295,-0.0295,-0.0254,-0.0253,-0.0252,-0.0268,-0.0269,-0.0271,-0.0273,-0.0266,-0.0264,-0.0263,-0.0219,0,0,-0.0257,-0.0257,0,0,0,0,0,0,0,0,-0.0336,-0.033,-0.0294,-0.0294,-0.0295,-0.0269,-0.028,-0.0244,-0.0267,-0.0276,-0.0271,-0.0273,-0.027,-0.0268,-0.0254,-0.0219,-0.0218,-0.0257,-0.0256,-0.0255,-0.0255,0,0,0,0,0,0,0,-0.0339,-0.0332,-0.0273,-0.0294,-0.0294,-0.0299,-0.0295,-0.0273,-0.0263,-0.0275,-0.0277,-0.0276,-0.027,-0.0255,-0.0254,-0.0218,-0.0257,-0.0256,-0.0255,-0.0254,-0.0127,-0.0124,0,0,0,0,0,0,-0.0345,-0.0334,-0.0275,-0.0273,-0.0322,-0.0296,-0.0292,-0.0274,-0.0262,-0.0262,-0.0274,-0.0277,-0.0257,-0.0256,-0.0254,-0.0178,-0.0255,-0.0254,-0.0253,-0.0129,-0.0126,-0.0124,0,0,0,0,0,0,-0.0347,-0.034,-0.0276,-0.0306,-0.0299,-0.0293,-0.0273,-0.0272,-0.0262,-0.0262,-0.0263,-0.0266,-0.0259,-0.0256,-0.0217,-0.0179,-0.0253,-0.0251,-0.0132,-0.0128,-0.0125,-0.0041,0,0,0,0,0,0,-0.0349,-0.034,-0.0326,-0.0306,-0.0297,-0.0244,-0.0272,-0.0271,-0.026,-0.0263,-0.0255,-0.0256,-0.026,-0.0219,-0.0215,-0.0178,-0.025,-0.0135,-0.013,-0.0126,-0.0047,-0.0035,-0.0025,0,0,0,0,0,-0.0352,-0.0324,-0.0325,-0.0318,-0.0278,-0.0243,-0.0238,-0.0239,-0.0258,-0.0239,-0.0228,-0.0256,-0.0189,-0.0215,-0.0211,-0.0173,-0.0137,-0.0131,-0.0126,-0.0051,-0.0037,-0.0025,0,0,0,0,0,0,-0.0353,-0.0323,-0.0323,-0.0288,-0.0266,-0.0247,-0.0229,-0.0234,-0.0209,-0.0212,-0.0222,-0.022,-0.0172,-0.0179,-0.0208,-0.0122,-0.0169,-0.0162,-0.0113,-0.01,-0.0089,-0.0097,-0.0248,0,0,0,0,0,-0.0346,-0.0316,-0.0293,-0.0264,-0.025,-0.0239,-0.0226,-0.0223,-0.0204,-0.0196,-0.0189,-0.0173,-0.0143,-0.0129,-0.0107,-0.0057,-0.008,-0.003,-0.0019,-0.001,-0.0012,-0.0001,0.001,-0.0106,-0.0106,-0.0107,0,0,-0.0341,-0.0319,-0.0304,-0.0263,-0.0245,-0.0208,-0.0234,-0.0204,-0.0171,-0.0197,-0.0145,-0.0135,-0.0121,-0.0062,-0.0042,-0.0066,0.0013,-0.0003,0.0004,-0.0003,0.0005,0.0016,0.0026,-0.0103,-0.0104,-0.0104,0,0,-0.0316,-0.0292,-0.0261,-0.0233,-0.0202,-0.0183,-0.0174,-0.0145,-0.0129,-0.0076,-0.0083,-0.0048,-0.0007,0.0017,0.0032,0.0117,0.007,0.0122,0.0171,0.0183,0.0192,0.0199,0.0186,0.0192,0.0127,0.0128,0.0128,0,-0.0314,-0.0268,-0.0248,-0.0208,-0.0183,-0.017,-0.0131,-0.0098,-0.0059,-0.0037,-0.005,0.0025,0.0035,0.0104,0.0136,0.0141,0.0125,0.012,0.0195,0.0202,0.0208,0.0192,0.0198,0.0132,0.0132,0.0131,0.0131,0,-0.0268,-0.0228,-0.0204,-0.0147,-0.0113,-0.0073,-0.003,0.0008,0.0025,0.005,0.0115,0.014,0.0174,0.0196,0.0194,0.0254,0.0221,0.0205,0.0156,0.0224,0.0204,0.0208,0.0139,0.0137,0.0136,0.0135,0,0,-0.0269,-0.0189,-0.018,-0.0145,-0.0077,-0.0043,0.0027,0.0089,0.0129,0.0174,0.0224,0.029,0.0283,0.03,0.0304,0.0322,0.036,0.0286,0.0284,0.0262,0.0365,0.0332,0.0332,0.0352,0.0354,0.0355,0.0332,0,-0.0241,-0.0165,-0.0129,-0.0049,-0.0005,0.0038,0.0101,0.016,0.0204,0.0261,0.0296,0.0345,0.033,0.0347,0.0368,0.0367,0.0374,0.0366,0.031,0.0308,0.0263,0.0338,0.0373,0.0356,0.0335,0.0336,0.0336,0,-0.0208,-0.0159,-0.0085,0.0001,0.0024,0.0072,0.0164,0.0222,0.0304,0.0335,0.0384,0.0401,0.0454,0.0421,0.0442,0.0435,0.0403,0.0392,0.039,0.033,0.0284,0.0285,0.0362,0.0296,0.0341,0.0341,0.0341,0,-0.0217,-0.0126,-0.0069,-0.0037,0.0062,0.01,0.0153,0.0238,0.0298,0.0374,0.0417,0.0464,0.0496,0.0481,0.0468,0.0451,0.0473,0.0441,0.0378,0.0374,0.0378,0.0372,0.0375,0.0439,0.0439,0.0439,0.0439,0,-0.0193,-0.0144,-0.0072,-0.0034,0.0039,0.01,0.0181,0.024,0.0327,0.0414,0.0444,0.0518,0.0512,0.0531,0.0491,0.0457,0.0487,0.0397,0.0377,0.0408,0.0406,0.0324,0.0239,0.0438,0.0438,0.0438,0.0438,0,-0.0194,-0.0151,-0.0078,0.0012,0.004,0.0094,0.02,0.0266,0.0335,0.0447,0.0475,0.0562,0.0594,0.0571,0.0556,0.0489,0.0398,0.0424,0.045,0.0434,0.0292,0.021,0.0114,0.0065,0.0345,0.0344,0.0344,0,-0.018,-0.0147,-0.0054,-0.0005,0.0039,0.0117,0.0182,0.0263,0.0343,0.0491,0.0556,0.0616,0.0703,0.066,0.0563,0.048,0.0385,0.041,0.0385,0.0302,0.0195,0.0124,0.0085,0.0423,0.0423,0.0423,0.0423,0,-0.0148,-0.0125,-0.0062,0.0027,0.0096,0.0183,0.0278,0.034,0.0459,0.0561,0.0711,0.079,0.0763,0.0754,0.0617,0.0524,0.0334,0.0404,0.0334,0.0269,0.0177,0.0116,0.0395,0.0423,0.0423,0.0423,0.0423,0.0423,-0.0123,-0.0079,-0.0003,0.0084,0.0166,0.0273,0.0362,0.0477,0.0617,0.0842,0.0859,0.1058,0.0978,0.0822,0.0645,0.0373,0.0308,0.0303,0.0211,0.015,0.0098,0.0357,0.0351,0.035,0.035,0.0349,0.0349,0,-0.0079,-0.0025,0.0059,0.0177,0.028,0.0308,0.0458,0.0582,0.0775,0.0999,0.1162,0.1322,0.1147,0.0928,0.0543,0.0279,0.0161,0.0128,0.0064,0.0035,0.0306,0.0309,0.0276,0.0276,0.0276,0.0276,0.0276,0.0276,-0.0045,0.0034,0.0077,0.0257,0.0347,0.0512,0.0609,0.0803,0.1,0.1351,0.1578,0.1722,0.1618,0.0833,0.0308,0.0132,-0.0066,-0.0146,-0.025,-0.0029,-0.0018,-0.0007,-0.0019,-0.012,-0.0121,-0.0446,-0.0449,-0.0452]}],[{"header":{"parameterUnit":"m.s-1","parameterCategory":2,"la1":30.2991,"la2":30.254,"lo1":-89.0895,"lo2":-89.0444,"dy":0.0017,"dx":0.0017,"nx":28,"ny":28,"refTime":"2023-07-23T03:00:00:Z","depth":"2","parameterNumber":2,"parameterNumberName":"U-component_of_CURRENTS"},"data":[0,0,0,0,0,0,0,0,0,0,0,0,0,0,0,0,0,0,0,0,0,0,0,0,0,0,0,0,0,0,0,0,0,0,0,0,0,0,0,0,0,0,0,0,0,0,0,0,0,0,0,0,0,0,0,0,0,0,0.048,0.0481,0,0.0503,0.0503,0.0503,0.0544,0.0545,0.0546,0.0547,0.0563,0.0562,0.0562,0,0,0,0,0,0,0,0,0,0,0,0,0,0.0447,0.0447,0.048,0.0481,0.0482,0.0503,0.0503,0.0503,0.0543,0.0545,0.0546,0.0548,0.0563,0.0562,0.0561,0,0,0,0,0,0,0,0,0,0,0,0,0,0.0461,0.0447,0.048,0.0507,0.051,0.0503,0.0503,0.0503,0.0543,0.0545,0.0547,0.0548,0.0563,0.0562,0.0561,0.0521,0,0,0.0558,0.0558,0,0,0,0,0,0,0,0,0.046,0.0462,0.0503,0.0506,0.0509,0.0526,0.0497,0.051,0.0543,0.0526,0.0547,0.0549,0.0551,0.0551,0.0546,0.0522,0.0523,0.0558,0.0558,0.0557,0.0557,0,0,0,0,0,0,0,0.0459,0.0461,0.0485,0.0503,0.0507,0.051,0.0514,0.05,0.0526,0.0528,0.0532,0.054,0.0552,0.0547,0.0547,0.0523,0.0558,0.0558,0.0557,0.0557,0.0573,0.0574,0,0,0,0,0,0,0.0464,0.046,0.0485,0.0486,0.0493,0.051,0.0514,0.0515,0.0526,0.0531,0.0539,0.0542,0.0548,0.0548,0.0548,0.0626,0.0557,0.0556,0.0556,0.0572,0.0573,0.0574,0,0,0,0,0,0,0.0463,0.0465,0.0484,0.0477,0.0481,0.0509,0.051,0.0515,0.055,0.0535,0.0539,0.0575,0.0549,0.0549,0.0575,0.0622,0.0556,0.0555,0.0571,0.0572,0.0574,0.0703,0,0,0,0,0,0,0.0462,0.0465,0.048,0.0477,0.0481,0.0504,0.0509,0.0514,0.0552,0.0558,0.0566,0.0567,0.055,0.0577,0.0574,0.062,0.0554,0.057,0.0572,0.0573,0.0697,0.0708,0.0718,0,0,0,0,0,0.046,0.0466,0.048,0.0484,0.0497,0.0505,0.0507,0.053,0.0553,0.0568,0.0584,0.0569,0.0587,0.0577,0.0573,0.062,0.0569,0.0571,0.0573,0.0692,0.0706,0.0718,0,0,0,0,0,0,0.0455,0.0471,0.0486,0.0497,0.0515,0.0514,0.0533,0.0551,0.0573,0.0589,0.0581,0.0582,0.0623,0.0594,0.0583,0.0627,0.0575,0.0577,0.0667,0.0679,0.069,0.0715,0.0554,0,0,0,0,0,0.0462,0.0479,0.049,0.0505,0.0516,0.0533,0.0546,0.0563,0.0577,0.0591,0.0607,0.0614,0.0619,0.0631,0.0625,0.0646,0.0633,0.0671,0.0682,0.0691,0.0707,0.0708,0.0721,0.0582,0.0582,0.0582,0,0,0.0464,0.0478,0.0488,0.0508,0.0523,0.0543,0.0545,0.0574,0.0606,0.0586,0.0647,0.0653,0.0632,0.0665,0.068,0.0656,0.0729,0.0694,0.0703,0.0714,0.0712,0.0726,0.0738,0.0583,0.0583,0.0583,0,0,0.047,0.0492,0.0507,0.0527,0.0561,0.057,0.059,0.0617,0.0649,0.0694,0.0695,0.073,0.0742,0.0744,0.0741,0.0797,0.0783,0.0804,0.0885,0.0886,0.0898,0.0908,0.0939,0.0951,0.0812,0.0812,0.0812,0,0.0477,0.0497,0.0514,0.0537,0.0565,0.059,0.0618,0.0642,0.0685,0.0721,0.0731,0.0786,0.0775,0.0814,0.0851,0.0824,0.0838,0.0845,0.0903,0.0912,0.0921,0.0949,0.096,0.0819,0.0818,0.0817,0.0817,0,0.0487,0.052,0.0532,0.0575,0.0604,0.0632,0.067,0.0721,0.0771,0.0801,0.0878,0.0878,0.0917,0.0921,0.0913,0.0976,0.0973,0.0917,0.0878,0.0943,0.0968,0.0978,0.0828,0.0826,0.0824,0.0822,0,0,0.0458,0.0527,0.0536,0.0573,0.0632,0.0654,0.0722,0.0784,0.0845,0.0903,0.0985,0.1017,0.1051,0.105,0.1049,0.1064,0.1148,0.1044,0.1041,0.1089,0.1196,0.1226,0.1239,0.1117,0.1119,0.112,0.1201,0,0.0467,0.0517,0.0555,0.0621,0.0652,0.0714,0.0775,0.0843,0.0908,0.0993,0.1028,0.1097,0.1087,0.1136,0.1154,0.1152,0.1176,0.1133,0.1112,0.1112,0.1142,0.1251,0.1007,0.1061,0.121,0.1212,0.1213,0,0.0461,0.0503,0.0563,0.0661,0.0683,0.0734,0.0852,0.0911,0.1021,0.1079,0.1166,0.1205,0.1285,0.1242,0.1293,0.128,0.1263,0.1243,0.1243,0.1233,0.116,0.1012,0.1072,0.1228,0.1227,0.1226,0.1225,0,0.0423,0.051,0.0565,0.0596,0.0702,0.0765,0.0835,0.0947,0.1021,0.1152,0.1234,0.1309,0.1384,0.1374,0.1402,0.1355,0.1442,0.1343,0.1348,0.1349,0.1116,0.1096,0.1355,0.1355,0.1355,0.1354,0.1354,0,0.0409,0.0455,0.0561,0.059,0.0679,0.0765,0.0874,0.0958,0.1093,0.1196,0.129,0.1394,0.1426,0.1495,0.1457,0.1488,0.1489,0.1404,0.1384,0.1159,0.1142,0.1245,0.1232,0.1357,0.1357,0.1356,0.1356,0,0.0363,0.0424,0.0495,0.0618,0.0662,0.0735,0.0896,0.0979,0.1114,0.1259,0.1321,0.1491,0.1614,0.1642,0.1653,0.1582,0.1569,0.156,0.1333,0.1286,0.1453,0.1444,0.1559,0.1561,0.1563,0.1564,0.1565,0,0.0346,0.0377,0.0501,0.0556,0.0621,0.0737,0.0823,0.0973,0.1073,0.1316,0.1392,0.159,0.1701,0.1782,0.1688,0.165,0.1687,0.1423,0.127,0.1512,0.1479,0.1468,0.1458,0.1008,0.1004,0.1002,0.0999,0,0.0325,0.0372,0.0431,0.0532,0.0629,0.0729,0.087,0.0943,0.1139,0.1274,0.1479,0.1589,0.1696,0.1608,0.1609,0.1511,0.1413,0.1369,0.1666,0.1021,0.1006,0.097,0.0974,0.0974,0.0977,0.0978,0.098,0.0981,0.0318,0.035,0.043,0.0526,0.0618,0.072,0.0802,0.0946,0.1092,0.1284,0.1412,0.1488,0.14,0.1303,0.13,0.1284,0.1314,0.1164,0.1165,0.1171,0.112,0.1112,0.1091,0.1094,0.1097,0.1099,0.1101,0,0.0321,0.0359,0.043,0.0539,0.0615,0.0694,0.0835,0.09,0.1047,0.1179,0.1309,0.1052,0.0999,0.1046,0.0955,0.0927,0.0827,0.0921,0.0756,0.0776,0.0795,0.0722,0.0589,0.059,0.0591,0.0591,0,0,0.033,0.0374,0.0406,0.0512,0.0601,0.0716,0.0794,0.0875,0.0949,0.0976,0.0971,0.0922,0.0913,0.0707,0.0662,0.0696,0.075,0.0648,0.1019,0.084,0.0862,0.0855,0.0755,0,0,0,0,0]},{"header":{"parameterUnit":"m.s-1","parameterCategory":2,"la1":30.2991,"la2":30.254,"lo1":-89.0895,"lo2":-89.0444,"dy":0.0017,"dx":0.0017,"nx":28,"ny":28,"refTime":"2023-07-23T03:00:00:Z","depth":"2","parameterNumber":3,"parameterNumberName":"V-component_of_CURRENTS"},"data":[0,0,0,0,0,0,0,0,0,0,0,0,0,0,0,0,0,0,0,0,0,0,0,0,0,0,0,0,0,0,0,0,0,0,0,0,0,0,0,0,0,0,0,0,0,0,0,0,0,0,0,0,0,0,0,0,0,0,0.0061,0.006,0,-0.0007,-0.0008,-0.0009,-0.01,-0.0101,-0.0102,-0.0104,-0.0306,-0.031,-0.0314,0,0,0,0,0,0,0,0,0,0,0,0,0,0.0044,0.0045,0.0061,0.006,0.006,-0.0007,-0.0008,-0.0009,-0.01,-0.0101,-0.0103,-0.0104,-0.0304,-0.0309,-0.0314,0,0,0,0,0,0,0,0,0,0,0,0,0,0.002,0.0045,0.0061,0.0008,0.0002,-0.0007,-0.0008,-0.0009,-0.0099,-0.0101,-0.0103,-0.0105,-0.0303,-0.0309,-0.0315,-0.0313,0,0,-0.0334,-0.0337,0,0,0,0,0,0,0,0,0.0021,0.002,0.0016,0.0011,0.0006,-0.0045,-0.0088,-0.0117,-0.0099,-0.0063,-0.0104,-0.0106,-0.0228,-0.0241,-0.025,-0.0323,-0.0331,-0.0334,-0.0338,-0.0341,-0.0343,0,0,0,0,0,0,0,0.0023,0.0022,0.0032,0.0016,0.0009,-0.0036,-0.0041,-0.0094,-0.0137,-0.0066,-0.0072,-0.0076,-0.0233,-0.0243,-0.0256,-0.0334,-0.0334,-0.034,-0.0344,-0.0346,-0.052,-0.0521,0,0,0,0,0,0,0.0042,0.0025,0.0034,0.003,0.0011,-0.0034,-0.004,-0.0029,-0.0134,-0.015,-0.0074,-0.008,-0.0232,-0.0248,-0.0263,-0.0324,-0.0341,-0.0347,-0.035,-0.0519,-0.0521,-0.0522,0,0,0,0,0,0,0.0042,0.0044,0.0037,0.0026,0.0022,-0.003,-0.0018,-0.0029,-0.0063,-0.0139,-0.0159,-0.01,-0.0234,-0.0255,-0.0328,-0.0331,-0.0349,-0.0355,-0.0518,-0.052,-0.0521,-0.041,0,0,0,0,0,0,0.0042,0.0045,0.0046,0.0028,0.0024,0.0027,-0.0016,-0.0029,-0.006,-0.0069,-0.0167,-0.0186,-0.0237,-0.0318,-0.0334,-0.034,-0.036,-0.0517,-0.0519,-0.0521,-0.0412,-0.0407,-0.0403,0,0,0,0,0,0.0042,0.0066,0.0047,0.0047,0.0032,0.0028,0.0021,-0.0025,-0.0059,-0.0066,-0.0139,-0.0184,-0.0341,-0.0323,-0.0342,-0.0349,-0.0516,-0.0518,-0.052,-0.0414,-0.0408,-0.0403,0,0,0,0,0,0,0.0061,0.0058,0.0037,0.0058,0.0039,0.0013,0.0004,-0.0028,-0.0087,-0.0107,-0.0188,-0.0211,-0.0278,-0.0334,-0.0312,-0.0409,-0.044,-0.0445,-0.0353,-0.0348,-0.0343,-0.0303,-0.0365,0,0,0,0,0,0.0069,0.008,0.0066,0.0078,0.0072,0.0033,0.0019,-0.0008,-0.0053,-0.0082,-0.0149,-0.023,-0.0295,-0.0337,-0.0401,-0.0447,-0.0483,-0.047,-0.0465,-0.0461,-0.0444,-0.0512,-0.051,-0.0528,-0.0528,-0.0528,0,0,0.0079,0.0078,0.0082,0.0081,0.006,0.0068,0.0019,0.0007,0.0,-0.0095,-0.014,-0.0214,-0.0305,-0.0357,-0.0393,-0.0407,-0.0471,-0.0463,-0.0458,-0.0444,-0.0514,-0.0511,-0.051,-0.053,-0.0529,-0.0529,0,0,0.0118,0.0105,0.0128,0.012,0.01,0.0082,0.0077,0.0044,0.0012,-0.0028,-0.0106,-0.018,-0.0273,-0.0335,-0.038,-0.0391,-0.0443,-0.0423,-0.0363,-0.0429,-0.0427,-0.0426,-0.0441,-0.0442,-0.042,-0.042,-0.0419,0,0.0125,0.0159,0.0131,0.0151,0.0152,0.0092,0.0118,0.0084,0.0026,0.0006,-0.0035,-0.0176,-0.0259,-0.0322,-0.0328,-0.0377,-0.0405,-0.0369,-0.0418,-0.0418,-0.0419,-0.0435,-0.0438,-0.0415,-0.0415,-0.0416,-0.0416,0,0.0185,0.0202,0.0216,0.0223,0.0218,0.0229,0.0193,0.0168,0.0119,0.0082,0.0007,-0.01,-0.0178,-0.0227,-0.0279,-0.033,-0.0342,-0.0399,-0.0418,-0.0409,-0.0428,-0.0433,-0.0407,-0.0409,-0.0411,-0.0412,0,0,0.0234,0.0256,0.0258,0.028,0.026,0.0273,0.0258,0.024,0.0238,0.0149,0.0135,0.0005,-0.0053,-0.0108,-0.0196,-0.0261,-0.029,-0.0319,-0.0325,-0.0306,-0.0393,-0.0344,-0.0344,-0.0352,-0.0353,-0.0354,-0.0392,0,0.0287,0.0348,0.0341,0.0392,0.0423,0.0378,0.0381,0.0347,0.0298,0.0264,0.014,0.009,-0.0008,-0.0039,-0.0122,-0.0261,-0.0302,-0.0271,-0.0429,-0.0432,-0.0368,-0.0349,-0.0323,-0.035,-0.0397,-0.0398,-0.0398,0,0.035,0.0386,0.0452,0.0494,0.0504,0.0525,0.0528,0.0525,0.0455,0.0412,0.0331,0.0239,0.0127,0.0046,-0.0154,-0.0128,-0.0233,-0.0338,-0.0343,-0.0337,-0.0392,-0.0378,-0.0357,-0.0407,-0.0406,-0.0405,-0.0405,0,0.041,0.0467,0.0527,0.0539,0.057,0.0595,0.061,0.0572,0.0582,0.0515,0.0507,0.0353,0.0286,0.0111,-0.0099,-0.0124,-0.0307,-0.0375,-0.0418,-0.0414,-0.0442,-0.0439,-0.0481,-0.0481,-0.0481,-0.0481,-0.0481,0,0.048,0.0527,0.0567,0.0602,0.0683,0.0681,0.0745,0.0728,0.0713,0.0728,0.06,0.0571,0.0297,0.0154,-0.0044,-0.023,-0.0262,-0.0384,-0.0423,-0.04,-0.0393,-0.0496,-0.0497,-0.0483,-0.0482,-0.0482,-0.0482,0,0.0541,0.0557,0.0637,0.0693,0.0716,0.0781,0.085,0.0895,0.0868,0.0884,0.0874,0.0732,0.0551,0.0301,0.0018,-0.0133,-0.0335,-0.0384,-0.0306,-0.0334,-0.0406,-0.0401,-0.043,-0.0429,-0.0428,-0.0427,-0.0426,0,0.0583,0.0629,0.0708,0.0764,0.0799,0.0887,0.0949,0.0965,0.1008,0.0977,0.099,0.0853,0.0745,0.039,0.0113,-0.0166,-0.0274,-0.032,-0.037,-0.0366,-0.0402,-0.0399,-0.0396,-0.0361,-0.036,-0.0359,-0.0358,0,0.0673,0.0689,0.0752,0.0852,0.0938,0.104,0.1126,0.1173,0.1184,0.1186,0.1161,0.1086,0.0805,0.0496,0.0155,-0.0022,-0.0279,-0.0303,-0.0351,-0.0362,-0.0301,-0.0335,-0.0336,-0.0349,-0.035,-0.035,-0.0351,-0.0351,0.0733,0.079,0.0855,0.0952,0.1049,0.1165,0.1249,0.132,0.1382,0.1382,0.1303,0.112,0.0746,0.0277,0.0073,-0.0117,-0.0137,-0.0305,-0.031,-0.0315,-0.0285,-0.0223,-0.0248,-0.0249,-0.0249,-0.0249,-0.0249,0,0.081,0.0854,0.0953,0.107,0.1181,0.1209,0.1344,0.1409,0.1474,0.1418,0.1391,0.0871,0.0607,0.0243,0.0002,-0.0158,-0.0163,-0.0243,-0.0272,-0.0279,-0.0286,-0.0256,-0.0212,-0.0212,-0.0212,-0.0212,0,0,0.0851,0.0939,0.098,0.1151,0.1229,0.1369,0.1438,0.152,0.1492,0.1333,0.1127,0.0988,0.0497,0.0234,0.0038,-0.0063,-0.0107,-0.0059,-0.0071,-0.008,-0.0084,-0.0305,-0.0263,0,0,0,0,0]}],[{"header":{"parameterUnit":"m.s-1","parameterCategory":2,"la1":30.2991,"la2":30.254,"lo1":-89.0895,"lo2":-89.0444,"dy":0.0017,"dx":0.0017,"nx":28,"ny":28,"refTime":"2023-07-23T03:00:00:Z","depth":"4","parameterNumber":2,"parameterNumberName":"U-component_of_CURRENTS"},"data":[0,0,0,0,0,0,0,0,0,0,0,0,0,0,0,0,0,0,0,0,0,0,0,0,0,0,0,0,0,0,0,0,0,0,0,0,0,0,0,0,0,0,0,0,0,0,0,0,0,0,0,0,0,0,0,0,0,0,-0.0205,-0.0205,0,-0.0199,-0.0199,-0.0199,-0.0192,-0.0192,-0.0192,-0.0192,-0.0225,-0.0226,-0.0226,0,0,0,0,0,0,0,0,0,0,0,0,0,-0.0206,-0.0206,-0.0205,-0.0205,-0.0205,-0.0199,-0.0199,-0.0199,-0.0192,-0.0192,-0.0192,-0.0192,-0.0225,-0.0226,-0.0227,0,0,0,0,0,0,0,0,0,0,0,0,0,-0.0201,-0.0206,-0.0205,-0.0202,-0.0202,-0.0199,-0.0199,-0.0198,-0.0192,-0.0192,-0.0192,-0.0192,-0.0224,-0.0225,-0.0227,-0.0232,0,0,-0.023,-0.0231,0,0,0,0,0,0,0,0,-0.0202,-0.0201,-0.0203,-0.0202,-0.0202,-0.0198,-0.0211,-0.0212,-0.0192,-0.0193,-0.0192,-0.0192,-0.0221,-0.0222,-0.0217,-0.0233,-0.0235,-0.023,-0.0231,-0.0232,-0.0232,0,0,0,0,0,0,0,-0.0202,-0.0201,-0.02,-0.0203,-0.0203,-0.02,-0.02,-0.0211,-0.0206,-0.0193,-0.0193,-0.0196,-0.0221,-0.0216,-0.0218,-0.0235,-0.023,-0.0231,-0.0232,-0.0233,-0.0299,-0.03,0,0,0,0,0,0,-0.0207,-0.0201,-0.0201,-0.02,-0.0205,-0.02,-0.02,-0.0198,-0.0205,-0.0206,-0.0196,-0.0196,-0.0214,-0.0217,-0.022,-0.0255,-0.0232,-0.0233,-0.0234,-0.0298,-0.03,-0.0301,0,0,0,0,0,0,-0.0207,-0.0206,-0.0201,-0.0203,-0.0202,-0.0201,-0.0198,-0.0197,-0.0204,-0.0206,-0.0208,-0.0205,-0.0214,-0.0218,-0.0243,-0.0255,-0.0233,-0.0234,-0.0297,-0.0299,-0.03,-0.0308,0,0,0,0,0,0,-0.0207,-0.0206,-0.0216,-0.0203,-0.0202,-0.02,-0.0198,-0.0197,-0.0206,-0.0206,-0.0215,-0.0217,-0.0215,-0.0241,-0.0244,-0.0256,-0.0235,-0.0296,-0.0298,-0.03,-0.0306,-0.0309,-0.0312,0,0,0,0,0,-0.0207,-0.0209,-0.0217,-0.0217,-0.0213,-0.0201,-0.02,-0.0198,-0.0207,-0.0206,-0.0222,-0.0218,-0.0256,-0.0243,-0.0246,-0.0259,-0.0295,-0.0297,-0.03,-0.0305,-0.0309,-0.0312,0,0,0,0,0,0,-0.021,-0.0209,-0.0217,-0.0219,-0.0215,-0.02,-0.0205,-0.0207,-0.0217,-0.0225,-0.023,-0.0233,-0.0259,-0.0263,-0.0249,-0.0286,-0.0276,-0.0279,-0.0279,-0.0282,-0.0285,-0.0269,-0.0236,0,0,0,0,0,-0.0218,-0.0224,-0.0218,-0.0223,-0.0223,-0.022,-0.0221,-0.0218,-0.0222,-0.0226,-0.0236,-0.0253,-0.0269,-0.0279,-0.0291,-0.0312,-0.03,-0.0325,-0.0327,-0.033,-0.0321,-0.0327,-0.0329,-0.0309,-0.0309,-0.0309,0,0,-0.0222,-0.0224,-0.0228,-0.0226,-0.0225,-0.0219,-0.022,-0.022,-0.0221,-0.023,-0.0247,-0.0264,-0.0278,-0.0298,-0.0311,-0.0305,-0.0327,-0.0333,-0.0335,-0.0324,-0.033,-0.0331,-0.0333,-0.031,-0.031,-0.031,0,0,-0.0221,-0.0233,-0.0235,-0.0232,-0.0235,-0.023,-0.0234,-0.023,-0.0236,-0.0252,-0.0264,-0.029,-0.0311,-0.0322,-0.0331,-0.0361,-0.0343,-0.0371,-0.0371,-0.0378,-0.0379,-0.038,-0.0352,-0.0351,-0.0372,-0.0372,-0.0372,0,-0.0227,-0.0226,-0.0233,-0.023,-0.0229,-0.0236,-0.0229,-0.0234,-0.0242,-0.0252,-0.026,-0.0303,-0.0319,-0.0344,-0.0353,-0.0365,-0.0354,-0.0353,-0.0379,-0.038,-0.0381,-0.0353,-0.0351,-0.0373,-0.0373,-0.0372,-0.0372,0,-0.0219,-0.0223,-0.0222,-0.0223,-0.0223,-0.0218,-0.0223,-0.0235,-0.0251,-0.0257,-0.0291,-0.0316,-0.0337,-0.0355,-0.0361,-0.0382,-0.0366,-0.038,-0.0364,-0.0383,-0.0352,-0.035,-0.0374,-0.0373,-0.0373,-0.0373,0,0,-0.0212,-0.0215,-0.0217,-0.0214,-0.0218,-0.021,-0.0225,-0.0231,-0.0241,-0.0267,-0.0281,-0.0322,-0.0338,-0.0349,-0.037,-0.0383,-0.0379,-0.0382,-0.0383,-0.0343,-0.0366,-0.032,-0.0313,-0.0398,-0.0399,-0.0399,-0.0336,0,-0.0203,-0.019,-0.0199,-0.019,-0.0182,-0.0197,-0.0205,-0.0218,-0.0238,-0.0255,-0.0293,-0.0311,-0.0335,-0.0347,-0.0366,-0.038,-0.0376,-0.0392,-0.0363,-0.0362,-0.031,-0.031,-0.0399,-0.0334,-0.0334,-0.0333,-0.0333,0,-0.0191,-0.0183,-0.017,-0.0169,-0.0168,-0.0168,-0.0182,-0.019,-0.0221,-0.0239,-0.027,-0.0291,-0.0317,-0.0335,-0.0352,-0.0361,-0.0357,-0.0364,-0.0362,-0.0313,-0.0313,-0.0317,-0.0329,-0.0329,-0.0329,-0.033,-0.033,0,-0.0174,-0.0165,-0.0153,-0.015,-0.015,-0.0156,-0.0161,-0.0188,-0.0191,-0.0224,-0.0228,-0.0269,-0.0277,-0.0299,-0.0313,-0.033,-0.0318,-0.0343,-0.0291,-0.0286,-0.0341,-0.0341,-0.0338,-0.0339,-0.0339,-0.0339,-0.0339,0,-0.0156,-0.015,-0.0143,-0.0134,-0.012,-0.0135,-0.0134,-0.0151,-0.017,-0.0167,-0.0213,-0.0217,-0.0269,-0.0272,-0.0293,-0.0274,-0.0297,-0.0276,-0.027,-0.0345,-0.0346,-0.0338,-0.0339,-0.0337,-0.0337,-0.0337,-0.0338,0,-0.0147,-0.0142,-0.0123,-0.0115,-0.0111,-0.0103,-0.0101,-0.0097,-0.0124,-0.0121,-0.0124,-0.0163,-0.0169,-0.02,-0.0221,-0.0228,-0.0229,-0.0212,-0.0257,-0.0257,-0.0194,-0.0196,-0.0145,-0.0143,-0.0142,-0.014,-0.0139,0,-0.0141,-0.0131,-0.0104,-0.0081,-0.0078,-0.0066,-0.0054,-0.0072,-0.0063,-0.0085,-0.0073,-0.0084,-0.0107,-0.0095,-0.0142,-0.0149,-0.0159,-0.0141,-0.0199,-0.0176,-0.0175,-0.018,-0.0185,-0.0136,-0.0136,-0.0135,-0.0135,0,-0.0133,-0.0126,-0.0107,-0.0055,-0.0031,-0.0002,0.0013,0.0028,0.0011,-0.001,-0.0013,-0.003,-0.0028,-0.0064,-0.0057,-0.0077,-0.0153,-0.0123,-0.0128,-0.0182,-0.0164,-0.0166,-0.0173,-0.0129,-0.013,-0.013,-0.013,0,-0.0131,-0.011,-0.0077,-0.0036,0.0013,0.0057,0.0057,0.0075,0.0078,0.0054,0.0055,0.0017,-0.0013,-0.0023,-0.003,-0.0031,-0.0046,-0.0054,-0.0063,-0.007,-0.0081,-0.0049,0.004,0,0,0,0,0,-0.0124,-0.01,-0.0056,-0.0,0.0055,0.0075,0.0106,0.0102,0.0092,0.0105,0.008,0.0075,0.0051,0.0023,0.0034,0.0001,-0.0043,0.0014,-0.0057,-0.0095,-0.0102,-0.0126,0,0,0,0,0,0,-0.0116,-0.0084,-0.0058,0.0022,0.0067,0.0121,0.0141,0.013,0.0138,0.0117,0.0104,0.008,0.0056,0.0042,0.003,0.0026,-0.0013,-0.0007,-0.0007,-0.0091,-0.0097,-0.0103,-0.013,0,0,0,0,0]},{"header":{"parameterUnit":"m.s-1","parameterCategory":2,"la1":30.2991,"la2":30.254,"lo1":-89.0895,"lo2":-89.0444,"dy":0.0017,"dx":0.0017,"nx":28,"ny":28,"refTime":"2023-07-23T03:00:00:Z","depth":"4","parameterNumber":3,"parameterNumberName":"V-component_of_CURRENTS"},"data":[0,0,0,0,0,0,0,0,0,0,0,0,0,0,0,0,0,0,0,0,0,0,0,0,0,0,0,0,0,0,0,0,0,0,0,0,0,0,0,0,0,0,0,0,0,0,0,0,0,0,0,0,0,0,0,0,0,0,0.0333,0.0333,0,0.0332,0.0331,0.0331,0.0326,0.0326,0.0326,0.0326,0.0311,0.031,0.031,0,0,0,0,0,0,0,0,0,0,0,0,0,0.0319,0.0319,0.0333,0.0333,0.0334,0.0332,0.0331,0.0331,0.0326,0.0326,0.0326,0.0327,0.0311,0.031,0.031,0,0,0,0,0,0,0,0,0,0,0,0,0,0.0318,0.0319,0.0333,0.0334,0.0334,0.0332,0.0331,0.0331,0.0326,0.0326,0.0326,0.0327,0.0311,0.031,0.031,0.0295,0,0,0.0306,0.0306,0,0,0,0,0,0,0,0,0.0318,0.0318,0.0333,0.0334,0.0334,0.0333,0.0321,0.032,0.0325,0.0324,0.0326,0.0327,0.0319,0.0318,0.0311,0.0295,0.0294,0.0306,0.0306,0.0305,0.0305,0,0,0,0,0,0,0,0.0318,0.0318,0.0328,0.0334,0.0335,0.0331,0.0331,0.032,0.0316,0.0324,0.0325,0.0332,0.0319,0.0312,0.0311,0.0294,0.0306,0.0306,0.0305,0.0305,0.0241,0.024,0,0,0,0,0,0,0.0327,0.0318,0.0328,0.0329,0.0332,0.0331,0.0331,0.033,0.0317,0.0316,0.0331,0.0332,0.0313,0.0312,0.031,0.0266,0.0305,0.0304,0.0304,0.0242,0.0241,0.024,0,0,0,0,0,0,0.0326,0.0327,0.0328,0.0327,0.0328,0.0331,0.033,0.0329,0.0321,0.0323,0.0321,0.0324,0.0314,0.0311,0.0288,0.0266,0.0304,0.0303,0.0243,0.0242,0.024,0.0195,0,0,0,0,0,0,0.0326,0.0327,0.0333,0.0327,0.0328,0.0324,0.033,0.0329,0.0327,0.0327,0.0316,0.0315,0.0314,0.029,0.0287,0.0266,0.0302,0.0245,0.0243,0.0241,0.0197,0.0192,0.0187,0,0,0,0,0,0.0325,0.0322,0.0332,0.0334,0.0334,0.0324,0.0323,0.0324,0.0326,0.0318,0.0305,0.0315,0.0275,0.0288,0.0285,0.0263,0.0246,0.0243,0.0241,0.02,0.0193,0.0187,0,0,0,0,0,0,0.0317,0.0322,0.0333,0.0332,0.0332,0.0324,0.0324,0.0321,0.0305,0.0302,0.03,0.0297,0.0269,0.0272,0.0286,0.0239,0.0263,0.026,0.0232,0.0226,0.022,0.0219,0.0302,0,0,0,0,0,0.032,0.0321,0.0325,0.0326,0.0326,0.0325,0.0323,0.0318,0.0306,0.0299,0.0287,0.0274,0.0256,0.0247,0.0233,0.0208,0.0218,0.0192,0.0186,0.0182,0.0178,0.0171,0.0165,0.0232,0.0232,0.0232,0,0,0.0321,0.0323,0.0326,0.0325,0.0326,0.0308,0.0323,0.0312,0.0287,0.0299,0.0258,0.0253,0.0245,0.0212,0.02,0.0213,0.0168,0.0179,0.0175,0.0174,0.0168,0.0161,0.0156,0.023,0.023,0.0231,0,0,0.031,0.0321,0.0315,0.0308,0.0308,0.0299,0.0295,0.0279,0.0264,0.0229,0.0229,0.0208,0.0182,0.0167,0.0158,0.0115,0.0139,0.0115,0.0086,0.0078,0.0072,0.0068,0.0075,0.0072,0.0113,0.0113,0.0113,0,0.031,0.03,0.0312,0.0296,0.0284,0.0291,0.0265,0.0249,0.0222,0.0202,0.021,0.0162,0.0156,0.0117,0.0102,0.0101,0.0112,0.0111,0.0071,0.0067,0.0063,0.0072,0.0068,0.011,0.0111,0.0111,0.0111,0,0.0285,0.0278,0.0271,0.0253,0.0239,0.0218,0.02,0.0176,0.016,0.0143,0.0102,0.0093,0.0069,0.0062,0.0068,0.0034,0.0056,0.0066,0.009,0.0053,0.0065,0.0062,0.0107,0.0108,0.0108,0.0109,0,0,0.0274,0.0257,0.0255,0.0236,0.0209,0.0191,0.0148,0.011,0.0079,0.0056,0.0016,-0.0013,-0.0004,-0.0012,-0.0005,-0.0012,-0.003,0.0017,0.0017,0.0027,-0.0032,-0.0058,-0.0063,-0.0021,-0.0022,-0.0023,-0.0011,0,0.0249,0.0216,0.0206,0.016,0.0136,0.0119,0.0077,0.0043,0.0018,-0.0019,-0.0028,-0.0056,-0.0035,-0.0041,-0.0048,-0.0032,-0.0039,-0.0033,-0.0001,0.0,-0.0017,-0.0068,-0.0026,-0.0013,-0.0014,-0.0014,-0.0014,0,0.022,0.02,0.0158,0.0109,0.0097,0.0063,0.0002,-0.0032,-0.0074,-0.009,-0.0111,-0.0108,-0.0123,-0.0097,-0.0092,-0.0084,-0.0065,-0.005,-0.0049,-0.006,-0.0032,0.003,-0.0019,-0.0018,-0.0018,-0.0018,-0.0017,0,0.0202,0.0159,0.0125,0.0107,0.0057,0.0023,-0.0009,-0.0057,-0.0086,-0.0126,-0.014,-0.0158,-0.0156,-0.0143,-0.0107,-0.0099,-0.0092,-0.0078,-0.0086,-0.0086,-0.0041,-0.0036,-0.0084,-0.0084,-0.0084,-0.0084,-0.0084,0,0.0168,0.0139,0.0114,0.0091,0.0034,0.0005,-0.0053,-0.0087,-0.0124,-0.015,-0.0167,-0.018,-0.0166,-0.0155,-0.0125,-0.0114,-0.0106,-0.0104,-0.0096,-0.006,-0.0057,-0.0042,-0.0037,-0.0084,-0.0084,-0.0084,-0.0084,0,0.0149,0.0139,0.0096,0.0046,0.0027,-0.0014,-0.0069,-0.0102,-0.0134,-0.0163,-0.017,-0.0194,-0.0192,-0.0174,-0.0152,-0.0138,-0.0123,-0.0118,-0.0076,-0.0062,-0.0105,-0.0103,-0.0141,-0.0142,-0.0143,-0.0143,-0.0144,0,0.0131,0.0114,0.0071,0.0048,0.0021,-0.0031,-0.0063,-0.0104,-0.0122,-0.0163,-0.0168,-0.0192,-0.02,-0.0193,-0.0178,-0.0154,-0.0146,-0.0133,-0.0136,-0.0129,-0.0116,-0.0113,-0.0109,-0.0146,-0.0146,-0.0146,-0.0146,0,0.0092,0.0092,0.0062,0.0026,-0.0009,-0.0047,-0.0085,-0.0099,-0.013,-0.015,-0.0174,-0.0193,-0.0206,-0.0207,-0.0195,-0.0169,-0.0144,-0.0142,-0.014,-0.0143,-0.0135,-0.0121,-0.0116,-0.0149,-0.0149,-0.0149,-0.0149,0,0.0066,0.0048,0.0029,-0.0009,-0.0035,-0.0056,-0.0081,-0.0103,-0.0127,-0.0155,-0.0158,-0.0186,-0.0199,-0.0214,-0.0194,-0.0191,-0.0192,-0.0175,-0.0171,-0.0168,-0.0186,-0.0181,-0.0217,0,0,0,0,0,0.0036,0.0022,-0.0009,-0.0036,-0.0049,-0.0063,-0.0091,-0.0104,-0.0117,-0.0132,-0.0148,-0.016,-0.0185,-0.0201,-0.0205,-0.0211,-0.0187,-0.0215,-0.0164,-0.0167,-0.0163,-0.0184,0,0,0,0,0,0,0.0011,-0.0008,-0.0015,-0.004,-0.0053,-0.0069,-0.0084,-0.0096,-0.0104,-0.012,-0.0135,-0.0149,-0.0173,-0.0175,-0.0199,-0.0202,-0.0169,-0.0228,-0.0228,-0.0169,-0.0166,-0.0163,-0.0183,0,0,0,0,0]}]]